FW3337 Weather Reports


Display with metric or nautical units.
time (UTC)temp
F
wind
direction
speed
MPH
gust
MPH
rain 1hr
in
rain 24hr
in
rain mn
in
humidity
%
barometer
mb
20260902220008 67 94 0.0 2.0 0.00 0.18 0.17 96 1019.0
20260902214506 67 94 0.0 0.0 0.00 0.18 0.17 96 1019.3
20260902213005 67 94 0.0 2.0 0.00 0.18 0.17 96 1019.3
20260902211505 67 94 0.0 1.0 0.00 0.18 0.17 96 1019.1
20260902210004 67 94 0.0 1.0 0.00 0.18 0.17 96 1019.0
20260902204503 67 89 0.0 1.0 0.00 0.18 0.17 96 1019.3
20260902203004 67 66 0.0 3.0 0.00 0.18 0.17 96 1019.0
20260902201505 67 105 0.0 4.0 0.00 0.18 0.17 97 1018.9
20260902200002 66 96 0.0 1.0 0.00 0.19 0.17 97 1018.9
20260902194615 66 96 0.0 1.0 0.05 0.19 0.17 97 1019.2
20260902193100 66 96 0.0 1.0 0.08 0.19 0.17 97 1019.4
20260902191604 66 96 0.0 0.0 0.13 0.19 0.17 97 1019.4
20260902190056 65 96 0.0 0.0 0.16 0.19 0.17 97 1019.9
20260902184555 65 96 0.0 0.0 0.11 0.14 0.12 97 1020.1
20260902183135 65 96 0.0 2.0 0.07 0.10 0.08 96 1020.0
20260902181559 66 96 0.0 2.0 0.03 0.06 0.04 96 1020.7
20260902180054 66 96 0.0 1.0 0.00 0.03 0.01 96 1020.2
20260902174551 66 96 0.0 0.0 0.00 0.03 0.01 96 1019.8
20260902173056 65 96 0.0 0.0 0.00 0.03 0.01 96 1019.8
20260902171558 65 96 0.0 0.0 0.00 0.03 0.01 96 1019.9
20260902170048 65 96 0.0 2.0 0.00 0.03 0.01 95 1019.8
20260902164559 64 96 0.0 0.0 0.00 0.05 0.01 96 1020.0
20260902163046 64 96 0.0 0.0 0.00 0.05 0.01 96 1020.4
20260902161546 64 96 0.0 3.0 0.00 0.05 0.01 96 1020.4
20260902160048 64 96 0.0 0.0 0.00 0.05 0.01 96 1020.3
20260902154553 64 96 0.0 0.0 0.00 0.08 0.01 97 1020.3
20260902153044 63 96 0.0 0.0 0.00 0.08 0.01 96 1020.3
20260902151543 63 96 0.0 0.0 0.00 0.08 0.01 97 1020.4
20260902150043 63 96 0.0 2.0 0.00 0.08 0.01 97 1020.6
20260902144544 63 96 0.0 1.0 0.00 0.15 0.01 97 1020.7
20260902143042 63 96 0.0 4.0 0.00 0.15 0.01 97 1020.4
20260902141541 62 95 0.0 2.0 0.00 0.15 0.01 97 1020.6
20260902140042 62 95 0.0 2.0 0.00 0.15 0.01 97 1020.8
20260902134541 62 95 0.0 3.0 0.00 0.15 0.01 97 1020.6
20260902133038 62 95 0.0 4.0 0.00 0.15 0.01 97 1020.3
20260902131547 62 95 0.0 0.0 0.00 0.15 0.01 98 1020.1
20260902130049 62 95 0.0 2.0 0.00 0.15 0.01 97 1019.9
20260902124534 62 95 0.0 1.0 0.00 0.15 0.01 98 1020.1
20260902123032 62 95 1.0 4.0 0.00 0.15 0.01 98 1019.7
20260902121531 62 89 1.0 3.0 0.00 0.15 0.01 98 1019.7
20260902120030 62 89 1.0 4.0 0.00 0.15 0.01 98 1019.7
20260902114532 63 99 0.0 2.0 0.00 0.15 0.01 98 1019.8
20260902113027 63 99 0.0 2.0 0.00 0.15 0.01 98 1019.8
20260902111529 63 99 0.0 1.0 0.01 0.15 0.01 98 1019.8
20260902110040 63 99 0.0 2.0 0.01 0.16 0.01 98 1019.4
20260902104534 63 99 0.0 0.0 0.01 0.16 0.01 98 1019.5
20260902103032 63 99 0.0 0.0 0.01 0.16 0.01 98 1019.5
20260902101521 63 99 0.0 0.0 0.00 0.15 0.00 98 1019.3
20260902100022 63 99 0.0 0.0 0.00 0.15 0.00 98 1019.2
20260902094519 63 99 0.0 0.0 0.00 0.15 0.00 98 1019.2
20260902093024 63 99 0.0 1.0 0.00 0.15 0.00 98 1019.1
20260902091517 63 99 0.0 2.0 0.00 0.15 0.00 98 1018.9
20260902090016 63 99 0.0 1.0 0.00 0.15 0.00 98 1018.8
20260902084515 63 99 0.0 0.0 0.00 0.15 0.00 98 1018.9
20260902083014 63 99 0.0 0.0 0.00 0.15 0.00 98 1018.8
20260902081512 63 99 0.0 0.0 0.00 0.15 0.00 97 1018.4
20260902080019 63 99 0.0 3.0 0.00 0.15 0.00 97 1018.3
20260902074511 63 99 0.0 3.0 0.00 0.15 0.00 97 1018.2
20260902073024 63 99 0.0 2.0 0.00 0.15 0.00 97 1018.1
20260902071512 63 99 0.0 0.0 0.00 0.15 0.00 97 1018.0
20260902070008 63 99 0.0 0.0 0.00 0.16 0.00 97 1018.2
20260902064507 63 99 0.0 1.0 0.00 0.16 0.00 97 1018.2
20260902063013 63 99 0.0 1.0 0.00 0.16 0.00 97 1018.3
20260902061506 63 99 0.0 0.0 0.00 0.16 0.00 97 1018.5
20260902060007 63 99 0.0 0.0 0.00 0.21 0.00 97 1018.6
20260902054510 63 99 0.0 0.0 0.00 0.21 0.00 97 1018.5
20260902053004 63 99 0.0 1.0 0.00 0.21 0.00 97 1018.3
20260902051503 64 99 0.0 2.0 0.00 0.21 0.00 97 1018.4
20260902050101 64 99 0.0 4.0 0.00 0.21 0.00 97 1018.3
20260902044600 64 95 0.0 3.0 0.00 0.44 0.00 96 1018.3
20260902043058 64 95 0.0 3.0 0.00 0.44 0.00 96 1018.3
20260902041608 64 87 1.0 3.0 0.00 0.44 0.00 96 1018.3
20260902040055 64 88 1.0 3.0 0.00 0.44 0.00 96 1018.1
20260902034555 64 88 0.0 3.0 0.00 0.54 0.44 96 1017.9
20260902033055 64 88 0.0 7.0 0.00 0.54 0.44 96 1017.5
20260902031549 65 78 1.0 4.0 0.00 0.54 0.44 96 1017.2
20260902030048 65 96 0.0 3.0 0.00 0.54 0.44 97 1017.3
20260902024545 65 98 1.0 7.0 0.00 0.54 0.44 96 1017.0
20260902023046 66 101 1.0 6.0 0.00 0.54 0.44 96 1016.6
20260902021548 66 85 1.0 7.0 0.00 0.54 0.44 96 1016.5
20260902020039 67 71 1.0 4.0 0.00 0.54 0.44 96 1016.3
20260902014546 67 93 2.0 5.0 0.00 0.54 0.44 96 1016.3
20260902013036 68 106 2.0 6.0 0.00 0.54 0.44 96 1016.1
20260902011534 68 96 1.0 6.0 0.00 0.54 0.44 96 1015.7
20260902010035 69 92 0.0 5.0 0.01 0.54 0.44 96 1015.5
20260902004534 70 81 1.0 7.0 0.01 0.54 0.44 95 1015.2
20260902003033 71 79 0.0 5.0 0.01 0.54 0.44 95 1015.2
20260902001532 73 83 0.0 3.0 0.01 0.54 0.44 96 1014.9
20260902000032 73 300 0.0 1.0 0.00 0.53 0.43 96 1014.3
20260901234531 74 300 0.0 2.0 0.00 0.53 0.43 96 1014.1
20260901233030 75 72 0.0 2.0 0.00 0.53 0.43 96 1014.3
20260901231531 75 72 0.0 0.0 0.00 0.53 0.43 96 1014.3
20260901230035 75 72 0.0 0.0 0.00 0.53 0.43 96 1013.8
20260901224529 75 72 0.0 0.0 0.00 0.53 0.43 96 1014.0
20260901223029 76 72 0.0 0.0 0.00 0.53 0.43 96 1013.5
20260901221533 76 72 0.0 0.0 0.00 0.53 0.43 95 1013.5